Tracking 28915 objects as of 29-May-2024
HD Live streaming from Space Station
objects crossing your sky now

GAOFEN 9 04

Track GAOFEN 9 04 now!
10-day predictions


NORAD ID: 46025
Int'l Code: 2020-054A
Perigee: 504.1 km
Apogee: 505.6 km
Inclination: 97.3 °
Period: 94.6 minutes
Semi major axis: 6875 km
RCS: Unknown
Launch date: August 6, 2020
Source: People's Republic of China (PRC)
Launch site: Jiuquan Satellite Launch Center, China (JSC)
Your satellite tracking list
Your tracking list is empty




NASA's NSSDC Master Catalog

Two Line Element Set (TLE):
1 46025U 20054A   24150.58449170  .00007078  00000-0  30659-3 0  9996
2 46025  97.3310 224.2246 0001055 108.1451 251.9901 15.22696846212006
Source of the keplerian elements: AFSPC